This is the latest recevied weather packets stored in our database for station/object KF7SOJ. If no packets are shown the sender has not sent any weather packets the latest 10 day(s).
| Time | Temp. | Humidity | Pressure | Rain* | Wind** | Luminosity | Snow |
|---|---|---|---|---|---|---|---|
| 1787788640 | 31.67° C | 25% | 934 hPa | 0 mm | - | 144 W/m² | - |
| 1787788341 | 31.67° C | 26% | 934.1 hPa | 0 mm | - | 197 W/m² | - |
| 1787788036 | 31.67° C | 26% | 934 hPa | 0 mm | - | 183 W/m² | - |
| 1787787732 | 31.67° C | 25% | 934.2 hPa | 0 mm | - | 145 W/m² | - |
| 1787787430 | 32.22° C | 24% | 934 hPa | 0 mm | - | 158 W/m² | - |
| 1787787125 | 32.22° C | 24% | 934.1 hPa | 0 mm | - | 235 W/m² | - |
| 1787786825 | 32.22° C | 25% | 934.2 hPa | 0 mm | - | 275 W/m² | - |
| 1787786520 | 32.78° C | 24% | 934.2 hPa | 0 mm | - | 391 W/m² | - |
| 1787786215 | 32.22° C | 25% | 934.2 hPa | 0 mm | - | 375 W/m² | - |
| 1787785911 | 32.22° C | 26% | 934.3 hPa | 0 mm | - | 407 W/m² | - |
| 1787785606 | 32.22° C | 25% | 934.4 hPa | 0 mm | - | 410 W/m² | - |
| 1787785301 | 32.78° C | 23% | 934.3 hPa | 0 mm | - | 428 W/m² | - |
| 1787785000 | 32.22° C | 25% | 934.3 hPa | 0 mm | - | 431 W/m² | - |
| 1787784700 | 32.22° C | 26% | 934.6 hPa | 0 mm | - | 465 W/m² | - |
| 1787784399 | 32.22° C | 26% | 934.6 hPa | 0 mm | - | 482 W/m² | - |
| 1787784099 | 32.78° C | 25% | 934.4 hPa | 0 mm | - | 488 W/m² | - |
| 1787783796 | 32.22° C | 25% | 934.7 hPa | 0 mm | - | 504 W/m² | - |
| 1787783496 | 32.78° C | 25% | 934.8 hPa | 0 mm | - | 540 W/m² | - |
| 1787783191 | 32.22° C | 27% | 934.7 hPa | 0 mm | - | 555 W/m² | - |
| 1787782886 | 32.22° C | 26% | 934.8 hPa | 0 mm | - | 567 W/m² | - |
| 1787782585 | 32.22° C | 26% | 935 hPa | 0 mm | - | 571 W/m² | - |
| 1787782281 | 32.22° C | 26% | 935.1 hPa | 0 mm | - | 587 W/m² | - |
| 1787781982 | 31.67° C | 26% | 935.1 hPa | 0 mm | - | 593 W/m² | - |
| 1787781672 | 31.67° C | 27% | 935.3 hPa | 0 mm | - | 608 W/m² | - |
| 1787781368 | 32.22° C | 26% | 935.2 hPa | 0 mm | - | 621 W/m² | - |
* Rain latest hour (hover to see other rain measurements)
** Current wind speed in m/s (hover to see current wind gust speed)